User: anonymous   Login
Location: Mount Kobau Star Party
(49.1167°N, 119.7333°W)
Time: 21:15:19
(UTC-07:00)
Language:

TSX-5 - Orbit

View from above orbital plane
View from above orbital plane
View from above satellite
View from above satellite

Ground track
Ground track

The orbit data is extracted from the following two-line orbital elements,

1 26374U 00030A   15113.61123372  .00009740  00000-0  87085-3 0  9992
2 26374 068.9319 157.5416 0671089 083.7401 076.6860 13.98720184745948
Epoch (UTC): 23 April 2015 14:40:10
Eccentricity: 0.0671089
inclination: 68.9319°
perigee height: 410 km
apogee height: 1386 km
right ascension of ascending node: 157.5416°
argument of perigee: 83.7401°
revolutions per day: 13.98720184
mean anomaly at epoch: 76.6860°
orbit number at epoch: 74594

The dashed part of the orbit path shows where the satellite is in the earth's shadow,  

DLR